Retour au catalogue

STARLINK-4782

ActifCommunicationsVLEO
NORAD 53933·PAYLOAD·🇺🇸 United States

Lancé Sep 24, 2022 depuis Cape Canaveral Space Force Station

Loading…

Prochains Passages (prochaines 24 heures)

TLE

FraisSource: CelesTrak SupGP

Époque: Sep 15, 2026, 02:02 UTC

1 53933C 22119AZ  26258.08520833  .00006353  00000+0  39848-3 0  2589
2 53933  53.1589 173.1238 0001579  76.1785 133.0511 15.08824760    13

Suivez STARLINK-4782 en temps réel avec AllMySat

Download on the App Store